Gunnison, CO

12:32 AM MDT on April 30, 2017 (GMT -0600)
Gunnison County

Weather History for KGUC - February, 2012

Change the Weather History Date:

Thursday, February 2, 2012

  Actual Average Record
Temperature  
Mean Temperature 24 °F -  
Max Temperature 33 °F 23 °F 39 °F (2015)
Min Temperature 15 °F 0 °F -16 °F (2011)
Degree Days  
Heating Degree Days 41    
Moisture  
Dew Point 17 °F    
Average Humidity 76    
Maximum Humidity 93    
Minimum Humidity 60    
Precipitation  
Precipitation 0.00 in - - ()
Sea Level Pressure  
Sea Level Pressure 29.94 in    
Wind  
Wind Speed 2 mph (NNE)    
Max Wind Speed 7 mph    
Max Gust Speed -    
Visibility 9 miles    
Events      
Averages and records for this station are not official NWS values.
T = Trace of Precipitation, MM = Missing Value Source: NWS Daily Summary

Daily Weather History Graph

Daily Weather History Graph

Search for Another Location

Airport or City:

Trip Planner

Search our weather history database for the weather conditions in past years. The results will help you decide how hot, cold, wet, or windy it might be!

Date:

Astronomy

Feb. 02, 2012 Rise Set
Actual Time 7:12 AM MST 5:30 PM MST
Civil Twilight 6:44 AM MST 5:58 PM MST
Nautical Twilight 6:13 AM MST 6:30 PM MST
Astronomical Twilight 5:41 AM MST 7:01 PM MST
Moon 12:45 PM MST (2/2) 2:56 AM MST (2/2)
Length of Visible Light 11h 13m
Length of Day
10h 17m
Waxing Gibbous, 74% of the Moon is Illuminated
Feb 2
Waxing Gibbous
Feb 7
Full
Feb 14
Last Quarter
Feb 21
New
Feb 29
First Quarter

Hourly Weather History & Observations

Time (MST) Temp. Windchill Dew Point Humidity Pressure Visibility Wind Dir Wind Speed Gust Speed Precip Events Conditions
12:15 AM 17.6 °F - 12.2 °F 79% 30.13 in 10.0 mi Calm Calm - N/A   Overcast
12:35 AM 19.4 °F - 12.2 °F 74% 30.12 in 10.0 mi Calm Calm - N/A   Overcast
12:55 AM 19.4 °F 14.3 °F 12.2 °F 74% 30.10 in 10.0 mi NE 3.5 mph - N/A   Overcast
1:15 AM 19.4 °F - 12.2 °F 74% 30.09 in 10.0 mi Calm Calm - N/A   Overcast
1:35 AM 17.6 °F 10.7 °F 10.4 °F 73% 30.09 in 10.0 mi SSW 4.6 mph - N/A   Scattered Clouds
1:55 AM 17.6 °F - 12.2 °F 79% 30.09 in 10.0 mi Calm Calm - N/A   Mostly Cloudy
2:15 AM 17.6 °F - 12.2 °F 79% 30.08 in 10.0 mi Calm Calm - N/A   Overcast
2:35 AM 15.8 °F - 10.4 °F 79% 30.07 in 10.0 mi Calm Calm - N/A   Overcast
2:55 AM 15.8 °F - 10.4 °F 79% 30.06 in 10.0 mi Calm Calm - N/A   Overcast
3:15 AM 17.6 °F - 10.4 °F 73% 30.05 in 10.0 mi Calm Calm - N/A   Overcast
3:35 AM 17.6 °F - 10.4 °F 73% 30.04 in 10.0 mi Calm Calm - N/A   Overcast
3:55 AM 17.6 °F - 10.4 °F 73% 30.03 in 10.0 mi Calm Calm - N/A   Overcast
4:15 AM 17.6 °F - 12.2 °F 79% 30.02 in 10.0 mi Calm Calm - N/A   Overcast
4:35 AM 17.6 °F - 12.2 °F 79% 30.02 in 10.0 mi Calm Calm - N/A   Overcast
4:55 AM 17.6 °F 10.7 °F 12.2 °F 79% 30.02 in 10.0 mi WSW 4.6 mph - N/A   Overcast
5:15 AM 17.6 °F - 12.2 °F 79% 30.02 in 10.0 mi Calm Calm - N/A   Overcast
5:35 AM 19.4 °F 10.4 °F 14.0 °F 80% 30.01 in 10.0 mi ENE 6.9 mph - N/A   Overcast
5:55 AM 19.4 °F 12.8 °F 12.2 °F 74% 30.01 in 3.0 mi NNE 4.6 mph - N/A   Overcast
6:15 AM 19.4 °F 14.3 °F 14.0 °F 80% 30.00 in 2.5 mi NNE 3.5 mph - N/A   Overcast
7:15 AM 19.4 °F 10.4 °F 12.2 °F 74% 29.99 in 10.0 mi North 6.9 mph - N/A   Overcast
7:35 AM 19.4 °F 11.5 °F 12.2 °F 74% 29.98 in 10.0 mi ENE 5.8 mph - N/A   Scattered Clouds
7:55 AM 15.8 °F 7.2 °F 10.4 °F 79% 29.97 in 10.0 mi ENE 5.8 mph - N/A   Clear
8:15 AM 15.8 °F 10.2 °F 8.6 °F 73% 29.96 in 10.0 mi SE 3.5 mph - N/A   Partly Cloudy
8:35 AM 15.8 °F 8.6 °F 12.2 °F 86% 29.96 in 10.0 mi ENE 4.6 mph - N/A   Clear
8:55 AM 15.8 °F 7.2 °F 12.2 °F 86% 29.95 in 10.0 mi NE 5.8 mph - N/A   Clear
9:15 AM 17.6 °F 8.2 °F 14.0 °F 86% 29.95 in 10.0 mi NE 6.9 mph - N/A   Clear
9:55 AM 17.6 °F 12.3 °F 10.4 °F 73% 29.94 in 10.0 mi ENE 3.5 mph - N/A   Clear
10:15 AM 19.4 °F - 12.2 °F 74% 29.93 in 10.0 mi Calm Calm - N/A   Partly Cloudy
10:35 AM 21.2 °F - 15.8 °F 80% 29.93 in 10.0 mi Calm Calm - N/A   Mostly Cloudy
10:55 AM 21.2 °F - 15.8 °F 80% 29.91 in 10.0 mi Calm Calm - N/A   Overcast
11:15 AM 23.0 °F - 15.8 °F 74% 29.90 in 10.0 mi Calm Calm - N/A   Overcast
11:35 AM 24.8 °F - 17.6 °F 74% 29.90 in 10.0 mi Calm Calm - N/A   Overcast
11:55 AM 26.6 °F - 17.6 °F 69% 29.89 in 10.0 mi Calm Calm - N/A   Overcast
12:15 PM 26.6 °F - 19.4 °F 74% 29.88 in 0.8 mi Calm Calm - N/A   Overcast
12:35 PM 24.8 °F - 21.2 °F 86% 29.88 in 1.0 mi Calm Calm - N/A   Overcast
12:55 PM 26.6 °F - 21.2 °F 80% 29.87 in 1.2 mi Calm Calm - N/A   Overcast
1:15 PM 24.8 °F - 21.2 °F 86% 29.86 in 1.0 mi Calm Calm - N/A   Overcast
1:35 PM 26.6 °F - 24.8 °F 93% 29.85 in 1.2 mi Calm Calm - N/A   Overcast
1:55 PM 28.4 °F - 24.8 °F 86% 29.85 in 7.0 mi Calm Calm - N/A   Overcast
2:15 PM 28.4 °F 21.2 °F 24.8 °F 86% 29.84 in 10.0 mi SSE 6.9 mph - N/A   Overcast
2:35 PM 30.2 °F 24.3 °F 24.8 °F 80% 29.84 in 10.0 mi SE 5.8 mph - N/A   Overcast
2:55 PM 30.2 °F - 23.0 °F 75% 29.84 in 10.0 mi Calm Calm - N/A   Mostly Cloudy
3:15 PM 32.0 °F - 24.8 °F 75% 29.84 in 10.0 mi Calm Calm - N/A   Overcast
3:35 PM 33.8 °F 29.6 °F 24.8 °F 70% 29.84 in 10.0 mi North 4.6 mph - N/A   Mostly Cloudy
3:55 PM 33.8 °F 30.8 °F 23.0 °F 65% 29.83 in 10.0 mi East 3.5 mph - N/A   Mostly Cloudy
4:15 PM 32.0 °F 27.5 °F 21.2 °F 64% 29.84 in 10.0 mi ESE 4.6 mph - N/A   Overcast
4:35 PM 33.8 °F 30.8 °F 21.2 °F 60% 29.84 in 10.0 mi North 3.5 mph - N/A   Overcast
4:55 PM 33.8 °F 28.6 °F 21.2 °F 60% 29.85 in 10.0 mi NNW 5.8 mph - N/A   Overcast
5:15 PM 32.0 °F 27.5 °F 21.2 °F 64% 29.85 in 10.0 mi NNW 4.6 mph - N/A   Overcast
5:35 PM 30.2 °F 25.4 °F 21.2 °F 69% 29.86 in 10.0 mi NNW 4.6 mph - N/A   Overcast
5:55 PM 30.2 °F - 21.2 °F 69% 29.87 in 10.0 mi Calm Calm - N/A   Overcast
6:15 PM 30.2 °F 25.4 °F 21.2 °F 69% 29.88 in 10.0 mi NNW 4.6 mph - N/A   Overcast
6:35 PM 28.4 °F 24.6 °F 23.0 °F 80% 29.89 in 10.0 mi West 3.5 mph - N/A   Overcast
6:55 PM 28.4 °F 22.2 °F 21.2 °F 74% 29.90 in 10.0 mi WSW 5.8 mph - N/A   Overcast
7:15 PM 28.4 °F 23.3 °F 21.2 °F 74% 29.90 in 10.0 mi West 4.6 mph - N/A   Overcast
7:55 PM 28.4 °F - 21.2 °F 74% 29.91 in 10.0 mi Calm Calm - N/A   Overcast
8:15 PM 26.6 °F 19.1 °F 21.2 °F 80% 29.92 in 10.0 mi North 6.9 mph - N/A   Overcast
8:35 PM 26.6 °F 21.2 °F 21.2 °F 80% 29.92 in 10.0 mi North 4.6 mph - N/A   Overcast
8:55 PM 26.6 °F 21.2 °F 19.4 °F 74% 29.92 in 10.0 mi North 4.6 mph - N/A   Overcast
9:15 PM 26.6 °F 20.0 °F 19.4 °F 74% 29.93 in 10.0 mi North 5.8 mph - N/A   Overcast
9:35 PM 24.8 °F 16.9 °F 17.6 °F 74% 29.93 in 10.0 mi NNW 6.9 mph - N/A   Overcast
9:55 PM 24.8 °F 17.9 °F 17.6 °F 74% 29.93 in 10.0 mi North 5.8 mph - N/A   Overcast
10:15 PM 24.8 °F 20.5 °F 17.6 °F 74% 29.93 in 7.0 mi North 3.5 mph - N/A   Overcast
10:35 PM 24.8 °F 19.1 °F 17.6 °F 74% 29.94 in 10.0 mi North 4.6 mph - N/A   Overcast
10:55 PM 23.0 °F - 14.0 °F 68% 29.94 in 10.0 mi Calm Calm - N/A   Overcast
11:15 PM 21.2 °F - 12.2 °F 68% 29.94 in 10.0 mi Calm Calm - N/A   Overcast
11:35 PM 19.4 °F - 12.2 °F 74% 29.94 in 10.0 mi Calm Calm - N/A   Overcast
11:55 PM 19.4 °F - 12.2 °F 74% 29.94 in 10.0 mi Calm Calm - N/A   Mostly Cloudy